When you browse on this site, cookies collect data to enhance your experience and personalize the content and advertising you see.
Visit our Privacy Policy to learn more. By continuing to use the site, you agree to this use of cookies and data.
  • In United Kingdom
  • List of Countries
  • For 7 days
  • Water Temperature
  • Satellite Maps
  • Weather Map
  • Weather Widgets
  • user-avatar
    Login

    Hourly Weather Starozhilsk

    Today, 22 February, Friday

    Time Temperature Precipitation Wind Pressure Humidity
    00:00 -1°C° 0.1 mm 2 mps 741 mmHg 95%
    01:00 -2°C° 0.1 mm 2 mps 741 mmHg 95%
    02:00 -2°C° 0.1 mm 2 mps 741 mmHg 95%
    03:00 -2°C° 0.1 mm 2 mps 741 mmHg 96%
    04:00 -2°C° 0.3 mm 2 mps 741 mmHg 96%
    05:00 -2°C° 0.3 mm 2 mps 741 mmHg 95%
    06:00 -2°C° 0.3 mm 3 mps 741 mmHg 95%
    07:00 -2°C° 0.2 mm 3 mps 741 mmHg 94%
    08:00 -2°C° 0.2 mm 3 mps 741 mmHg 94%
    09:00 -2°C° 0.2 mm 3 mps 742 mmHg 93%
    10:00 -2°C° 0.3 mm 3 mps 742 mmHg 93%
    11:00 -1°C° 0.3 mm 3 mps 743 mmHg 93%
    12:00 -1°C° 0.3 mm 3 mps 744 mmHg 93%
    13:00 -1°C° 0.4 mm 3 mps 744 mmHg 93%
    14:00 -1°C° 0.4 mm 3 mps 745 mmHg 92%
    15:00 -1°C° 0.4 mm 3 mps 745 mmHg 92%
    16:00 -3°C° 0.7 mm 4 mps 746 mmHg 91%
    17:00 -6°C° 0.7 mm 5 mps 747 mmHg 89%
    18:00 -8°C° 0.7 mm 6 mps 748 mmHg 88%
    19:00 -9°C° 0.1 mm 6 mps 749 mmHg 88%
    20:00 -10°C° 0.1 mm 6 mps 749 mmHg 88%
    21:00 -12°C° 0.1 mm 6 mps 750 mmHg 87%
    22:00 -12°C° 0 mm 6 mps 751 mmHg 87%
    23:00 -12°C° 0 mm 6 mps 752 mmHg 87%

    Tomorrow, 23 February, Saturday

    Time Temperature Precipitation Wind Pressure Humidity
    00:00 -14°C° 0 mm 6 mps 753 mmHg 86%
    01:00 -13°C° 0.1 mm 5 mps 753 mmHg 87%
    02:00 -13°C° 0.1 mm 5 mps 754 mmHg 87%
    03:00 -14°C° 0.1 mm 5 mps 755 mmHg 88%
    04:00 -14°C° 0 mm 5 mps 756 mmHg 88%
    05:00 -15°C° 0 mm 5 mps 756 mmHg 88%
    06:00 -16°C° 0 mm 4 mps 757 mmHg 89%
    07:00 -16°C° 0 mm 4 mps 758 mmHg 89%
    08:00 -16°C° 0 mm 4 mps 759 mmHg 88%
    09:00 -17°C° 0 mm 4 mps 759 mmHg 88%
    10:00 -16°C° 0 mm 4 mps 760 mmHg 87%
    11:00 -15°C° 0 mm 3 mps 760 mmHg 86%
    12:00 -14°C° 0 mm 3 mps 760 mmHg 84%
    13:00 -14°C° 0 mm 3 mps 760 mmHg 83%
    14:00 -13°C° 0 mm 3 mps 760 mmHg 81%
    15:00 -13°C° 0 mm 3 mps 760 mmHg 80%
    16:00 -13°C° 0 mm 2 mps 761 mmHg 83%
    17:00 -14°C° 0 mm 2 mps 761 mmHg 87%
    18:00 -15°C° 0 mm 2 mps 761 mmHg 90%
    19:00 -16°C° 0 mm 2 mps 760 mmHg 90%
    20:00 -16°C° 0 mm 2 mps 760 mmHg 90%
    21:00 -16°C° 0 mm 2 mps 760 mmHg 91%
    22:00 -16°C° 0 mm 2 mps 760 mmHg 90%
    23:00 -16°C° 0 mm 2 mps 759 mmHg 90%

    Day after tomorrow, 24 February, Sunday

    Time Temperature Precipitation Wind Pressure Humidity
    00:00 -15°C° 0 mm 2 mps 759 mmHg 90%
    01:00 -15°C° 0 mm 2 mps 759 mmHg 90%
    02:00 -15°C° 0 mm 2 mps 758 mmHg 89%
    03:00 -16°C° 0 mm 3 mps 758 mmHg 89%
    04:00 -15°C° 0 mm 3 mps 758 mmHg 90%
    05:00 -15°C° 0 mm 3 mps 757 mmHg 91%
    06:00 -14°C° 0 mm 3 mps 757 mmHg 92%
    07:00 -14°C° 0.1 mm 3 mps 757 mmHg 92%
    08:00 -13°C° 0.1 mm 3 mps 757 mmHg 92%
    09:00 -12°C° 0.1 mm 3 mps 756 mmHg 91%
    10:00 -10°C° 0 mm 3 mps 756 mmHg 90%
    11:00 -9°C° 0 mm 3 mps 756 mmHg 88%
    12:00 -7°C° 0 mm 3 mps 756 mmHg 86%
    13:00 -7°C° 0 mm 3 mps 756 mmHg 86%
    14:00 -6°C° 0 mm 3 mps 755 mmHg 86%
    15:00 -6°C° 0 mm 3 mps 755 mmHg 86%
    16:00 -6°C° 0 mm 3 mps 755 mmHg 89%
    17:00 -5°C° 0 mm 2 mps 755 mmHg 91%
    18:00 -5°C° 0 mm 2 mps 755 mmHg 93%
    19:00 -5°C° 0 mm 2 mps 755 mmHg 94%
    20:00 -6°C° 0 mm 2 mps 755 mmHg 95%
    21:00 -6°C° 0 mm 2 mps 754 mmHg 96%
    22:00 -6°C° 0 mm 2 mps 754 mmHg 96%
    23:00 -6°C° 0 mm 2 mps 753 mmHg 97%

    25 February, Monday

    Time Temperature Precipitation Wind Pressure Humidity
    00:00 -6°C° 0 mm 2 mps 753 mmHg 97%
    01:00 -6°C° 0 mm 2 mps 753 mmHg 97%
    02:00 -6°C° 0 mm 3 mps 752 mmHg 96%
    03:00 -6°C° 0 mm 3 mps 752 mmHg 96%
    04:00 -5°C° 0.1 mm 3 mps 751 mmHg 96%
    05:00 -5°C° 0.1 mm 3 mps 751 mmHg 96%
    06:00 -5°C° 0.1 mm 3 mps 750 mmHg 96%
    07:00 -5°C° 0.1 mm 3 mps 749 mmHg 96%
    08:00 -4°C° 0.1 mm 3 mps 749 mmHg 96%
    09:00 -2°C° 0.1 mm 3 mps 748 mmHg 95%
    10:00 -2°C° 0.2 mm 3 mps 747 mmHg 95%
    11:00 -1°C° 0.2 mm 3 mps 747 mmHg 95%
    12:00 0°C° 0.2 mm 3 mps 746 mmHg 95%
    13:00 0°C° 0.1 mm 3 mps 746 mmHg 95%
    14:00 0°C° 0.1 mm 3 mps 745 mmHg 95%
    15:00 +1°C° 0.1 mm 2 mps 745 mmHg 96%
    16:00 +1°C° 0.1 mm 2 mps 744 mmHg 96%
    17:00 -1°C° 0.1 mm 2 mps 744 mmHg 97%
    18:00 +1°C° 0.1 mm 1 mps 744 mmHg 97%
    19:00 +1°C° 0.1 mm 1 mps 743 mmHg 97%
    20:00 -1°C° 0.1 mm 2 mps 743 mmHg 98%
    21:00 -1°C° 0.1 mm 2 mps 742 mmHg 98%
    22:00 -1°C° 0.1 mm 2 mps 742 mmHg 98%
    23:00 -1°C° 0.1 mm 2 mps 741 mmHg 98%

    26 February, Tuesday

    Time Temperature Precipitation Wind Pressure Humidity
    00:00 -1°C° 0.1 mm 2 mps 741 mmHg 98%
    01:00 -1°C° 0.1 mm 2 mps 740 mmHg 97%
    02:00 -1°C° 0.1 mm 2 mps 740 mmHg 97%
    03:00 -2°C° 0.1 mm 2 mps 740 mmHg 97%
    04:00 -2°C° 0.2 mm 2 mps 740 mmHg 97%
    05:00 -2°C° 0.2 mm 2 mps 739 mmHg 96%
    06:00 -2°C° 0.2 mm 2 mps 739 mmHg 95%
    07:00 -2°C° 0.2 mm 3 mps 739 mmHg 94%
    08:00 -2°C° 0.2 mm 3 mps 739 mmHg 93%
    09:00 -2°C° 0.2 mm 3 mps 739 mmHg 92%
    10:00 -2°C° 0.1 mm 3 mps 739 mmHg 92%
    11:00 -2°C° 0.1 mm 2 mps 739 mmHg 91%
    12:00 -2°C° 0.1 mm 2 mps 739 mmHg 90%
    13:00 -1°C° 0.1 mm 2 mps 739 mmHg 90%
    14:00 -1°C° 0.1 mm 2 mps 739 mmHg 90%
    15:00 -1°C° 0.1 mm 2 mps 739 mmHg 90%
    16:00 -2°C° 0 mm 2 mps 739 mmHg 92%
    17:00 0°C° 0 mm 1 mps 739 mmHg 93%
    18:00 -1°C° 0 mm 1 mps 740 mmHg 95%
    19:00 -1°C° 0 mm 1 mps 740 mmHg 95%
    20:00 -2°C° 0 mm 1 mps 740 mmHg 95%
    21:00 -2°C° 0 mm 1 mps 740 mmHg 96%
    22:00 -2°C° 0 mm 1 mps 740 mmHg 96%
    23:00 -3°C° 0 mm 1 mps 740 mmHg 96%

    27 February, Wednesday

    Time Temperature Precipitation Wind Pressure Humidity
    00:00 -3°C° 0 mm 1 mps 741 mmHg 96%
    01:00 -3°C° 0 mm 1 mps 741 mmHg 97%
    02:00 -2°C° 0 mm 1 mps 741 mmHg 97%
    03:00 -2°C° 0 mm 1 mps 742 mmHg 97%
    04:00 -2°C° 0 mm 1 mps 742 mmHg 97%
    05:00 -2°C° 0 mm 1 mps 742 mmHg 97%
    06:00 -2°C° 0 mm 1 mps 743 mmHg 97%
    07:00 -1°C° 0 mm 1 mps 743 mmHg 97%
    08:00 -1°C° 0 mm 1 mps 743 mmHg 96%
    09:00 -1°C° 0 mm 1 mps 744 mmHg 95%
    10:00 0°C° 0 mm 1 mps 744 mmHg 95%
    11:00 0°C° 0 mm 1 mps 744 mmHg 95%
    12:00 +1°C° 0 mm 1 mps 744 mmHg 94%
    13:00 0°C° 0 mm 1 mps 744 mmHg 93%
    14:00 0°C° 0 mm 1 mps 744 mmHg 93%
    15:00 0°C° 0 mm 1 mps 744 mmHg 92%
    16:00 0°C° 0 mm 1 mps 744 mmHg 93%
    17:00 -1°C° 0 mm 1 mps 744 mmHg 94%
    18:00 -3°C° 0 mm 0 mps 744 mmHg 95%
    19:00 -2°C° 0 mm 1 mps 743 mmHg 95%
    20:00 -2°C° 0 mm 1 mps 743 mmHg 95%
    21:00 -2°C° 0 mm 1 mps 743 mmHg 96%
    22:00 -2°C° 0.1 mm 1 mps 742 mmHg 96%
    23:00 -2°C° 0.1 mm 1 mps 742 mmHg 96%
    Show more